Location: Newark
(34.0131°N, 4.3314°W)
Time: 15:50:44
(UTC+00:00)

Explorer 11/Cluster Stage 4 - Pass Details

Date: 26 October 2019
Orbit: 467 x 1259 km, 28.8° (Epoch: 16 November)

Event Time Altitude Azimuth Distance (km) Brightness Sun altitude
Rises 11:09:15 0° 260° (W) 2,489 9.1 41.9°
Reaches altitude 10° 11:12:01 10° 238° (WSW) 1,609 8.5 42.1°
Maximum altitude 11:14:18 16° 198° (SSW) 1,307 8.7 42.2°
Drops below altitude 10° 11:16:40 10° 159° (SSE) 1,673 9.4 42.4°
Sets 11:19:38 0° 137° (SE) 2,644 9.9 42.5°
